Погода Рудная Пристань

Погода Рудная Пристань : погода сейчас, прогноз погоды и архив. Всё, что Вы хотите узнать о погоде Рудная Пристань!

Хотите узнать прогноз погоды Рудная Пристань? Тогда Вам сюда: Погода Рудная Пристань

Поиск расширенной информации на нашем сайте:

Другие новости

Новости СМИ2

Главная страница сайта

Новости сайта

03.07.2017

Напоминаем, что на нашем специализированном сайте Метеоцентр.Азия вы можете получить высокодетализированные автоматические прогнозы погоды по пунктам России, СНГ и мира в авиационном формате (включающие направление и скорость ветра, видимость, явления погоды, количество и форму облачности, нижнюю и верхнюю границу облачности).

Рекомендуем: Нетбук в СВАО ремонт компьютеров компьютерная помощь одинцово VIP сервис

Погода Рудная Пристань - сегодня

Время (UTC), дата Ветер
(°,м/с) 
Видим.   Явления Облачность Т
(°С)
Тd
(°С)
f(%) Тe
(°С)
Pmin
(гПа)
dP
(гПа)
Po
(мм)
O2
(г/м3)
Тmin Tmax R s Состояние
почвы
21 21.11.17 270 (З) 20000 м    8/4 600 м верхняя 
[Sc|Ci fib]
-9 -14.7 63 -11  1012  -2.8  756  316  -11.9      мокрый или
старый снег
50-90% 
00 22.11.17 250 (З) 20000 м    ясно 
-8.3 -13.6 66 -10  1010.6  -1.4  755  315           
03 22.11.17 240 (ЮЗ) 20000 м    3/3 600 м 
[Sc]
+0.2 -8.7 51 +1  1008.1  -2.3  753  304           
06 22.11.17 290 (З) 20000 м    ясно 
+6.3 -8.2 35 +5  1006.2  -1.8  752  297           
09 22.11.17 270 (З) 20000 м    3/1 600 м верхняя 
[Sc|Ci sp]
+3.2 -8.2 43 +1  1007.1  0.9  752  300    +6.4       
12 22.11.17 260 (З) 5-12{12}  20000 м    3/0 верхняя 
[Ci fib]
+0.3 -9.9 46 -3  1008  0.8  753  304           
15 22.11.17 280 (З) 5-13{13}  20000 м    ясно 
-1.4 -13.4 40 -5  1007.8  -0.2  753  306           
18 22.11.17 260 (З) 5-11{14}  20000 м    8/3 600 м средняя 
[Sc|Ac lent]
-3.1 -14.7 40 -7  1009  1.1  754  308           
21 22.11.17 250 (З) 4{14}  20000 м    ясно 
-4.6 -15 44 -8  1009.2  0.1  754  310  -4.7      мокрый или
старый снег
50-90% 
00 23.11.17 240 (ЮЗ) 20000 м    ясно 
-3.6 -14.7 42 -5  1009.6  0.5  754  309  -5.9         
03 23.11.17 170 (Ю) 20000 м    4/4 600 м 
[Cu med, cong]
-1.7 -15.6 34 -1  1008.1  -1.5  753  307           
06 23.11.17 260 (З) 20000 м    3/3 600 м 
[Cu med, cong]
-2.2 -16.2 33 -5  1008.5  0.4  753  307           
09 23.11.17 270 (З) 20000 м    ясно 
-5.2 -15.2 45 -7  1009.9  1.4  754  311    -1.4       
12 23.11.17 290 (З) 20000 м    ясно 
-7.1 -15.9 49 -7  1011  755  314           
15 23.11.17 290 (З) 20000 м    ясно 
-9.4 -17.5 52 -9  1011.2  0.2  755  317           
18 23.11.17 290 (З) 20000 м    ясно 
-9.9 -18.8 48 -10  1011.3  -0.1  755  317           
21 23.11.17 280 (З) 20000 м    ясно 
-10.5 -19.1 49 -12  1011.7  0.4  755  318  -12.6      мокрый или
старый снег
50-90% 
00 24.11.17 230 (ЮЗ) 20000 м    3/3 600 м 
[Cu Sc]
-9.9 -18.7 49 -10  1013  1.4  756  318           
03 24.11.17 250 (З) 20000 м    4/3 600 м верхняя 
[Sc|Ci fib]
-6.2 -20.2 32 -10  1012.5  -0.5  756  313           
06 24.11.17 280 (З) 3{11}  20000 м    3/3 600 м 
[Cu hum]
-6.8 -21.1 31 -9  1013.1  0.6  757  314           
09 24.11.17 270 (З) 20000 м    1/1 600 м 
[Cu hum]
-10.5 -21.3 41 -10  1016.3  759  320    -5.8       
12 24.11.17 тихо ()   20000 м    ясно 
-12.4 -21.7 46 -12  1017.6  1.3  760  322           
15 24.11.17 310 (СЗ) 20000 м    ясно 
-12.4 -22 45 -12  1018.3  0.7  760  323           
18 24.11.17 тихо ()   20000 м    ясно 
-14.1 -22.9 47 -14  1019.2  0.8  761  325           
21 24.11.17 230 (ЮЗ) 20000 м    ясно 
-13.7 -23.7 43 -14  1020.3  1.1  762  325  -14.6      мокрый или
старый снег
50-90% 
Время (UTC), дата Ветер
(°,м/с) 
Видим.   Явления Облачность Т
(°С)
Тd
(°С)
f(%) Тe
(°С)
Pmin
(гПа)
dP
(гПа)
Po
(мм)
O2
(г/м3)
Тmin Tmax R s Состояние
почвы

Для получения пояснительной информации подведите курсор к названию столбца.

ПОГОДА Рудная Пристань - архив

Всё, что Вы хотите узнать о погоде Рудная Пристань - удобно и подробно!

Выберите нужную дату (начиная с 1 января 2015* года) и нажмите кнопку "Найти".
Будут отображены архивные сводки погоды по пункту Рудная Пристань, начиная с указанной даты.


Отображать данные в формате CSV (для использования в таблицах Excel)


Внимание! Наш архив погоды предназначен исключительно для личного некоммерческого использования в познавательных целях. Если Вам необходимы официальные справки о состоянии погоды (для производственных, юридических, коммерческих и т.п. целей), обращайтесь в органы Росгидромета.

*Примечание: данная дата относится к архиву по метеостанциям СССР (Россия, СНГ, Балтия).
Архив по метеостанциям Зарубежной Европы и Азии (кроме Китая) хранится 10 дней, по другим регионам земного шара (Китай, Африка, Америка, Австралия, Океания) - 1 день.

Рудная Пристань - район местоположения метеостанции


Название, широта, долгота, высота метеостанции:
Рудная Пристань 44.4°ш. 135.9°д. 34 м над ур. моря [Российская Федерация]

Дополнительная информация

В oтличие oт бoльшинства пoгoдных сайтoв мы публикуем пoдрoбную метеoинфoрмацию в детальнoм прoфессиoнальнoм фoрмате.

Характеристики температуры и влажнoсти вoздуха измеряются на высoте 2 м в тени вдали oт зданий и деревьев.
Скoрoсть ветра измеряется на высoте 10 м (на урoвне рoста челoвека скoрoсть ветра ниже в 1.5-2 раза). Если метеoстанция нахoдится в гoрoде или в лесу, тo скoрoсть ветра занижена на 2-4 м/с пo сравнению с oткрытым местoм. Скoрoсть ветра над акватoриями крупных рек и oзёр, а также на вершинах хoлмoв на 2-5 м/с выше, чем в oбычных услoвиях.
Атмoсфернoе давление в разных тoчках местнoсти мoжет значительнo oтличаться oт давления на метеoстанции, в зависимoсти oт услoвий рельефа (при пoдъёме на 10 м давление пoнижается примернo на 1 мм рт.ст.).